Voltar ao catálogo

STARLINK-2616

AtivoComunicaçõesVLEO
NORAD 48695·PAYLOAD·🇺🇸 United States

Lançado May 26, 2021 de Cape Canaveral Space Force Station

Loading…

Próximas Passagens (próximas 24 horas)

TLE

AtualizadoSource: CelesTrak SupGP

Época: Sep 14, 2026, 20:45 UTC

1 48695C 21044BK  26257.86506944  .00035312  00000+0  11354-2 0  2573
2 48695  53.1580 277.4080 0001125  87.0834 225.1064 15.31688400    10

Acompanhe STARLINK-2616 em tempo real com AllMySat

Download on the App Store